x

Isle Of Shoals, Nh (iosn3) Weather Station

8:00pm - Tue 21st Oct 2014 All times are EDT. -4 hours from GMT.

  • Wind
    16mph, 18mph gusts
  • 空気 Temp 54°f
  • Sea Pressure 1013.9mb
  • Isle Of Shoals, Nh
  • Isle Of Shoals, Nh

More Historic Weather Station data

Upgrade to MSW Pro to gain access to the past 30 days of data for over 8000 Wavebouys and Weather Stations around the globe.

Join Pro

Comparision Forecast

View Surf forecast
   
Tue 10/21 8:00pm 16 18 mph 1013.9mb 54f
7:00pm 16 17 mph 1013.9mb 54f
6:00pm 17 18 mph 1013.6mb 55f
5:00pm 9 10 mph 1013.6mb 56f
4:00pm 11 13 mph 1013.2mb 57f
3:00pm 13
mph
1013.6mb 57f
2:00pm 9
mph
1013.4mb 56f
1:00pm 13
mph
1013.6mb 57f
12:00pm 15 16 mph 1014.4mb 57f
11:00am 16 18 mph 1014.6mb 57f
10:00am 14 15 mph 1015mb 57f
9:00am 15 16 mph 1015.1mb 56f
8:00am 9 10 mph 1015mb 56f
7:00am 13 15 mph 1014.7mb 53f
6:00am 9 10 mph 1014.9mb 52f
5:00am 5 6 mph 1015.3mb 51f
4:00am 1 2 mph 1014.8mb 53f
3:00am 9 11 mph 1015.4mb 53f
2:00am 9 10 mph 1015.5mb 52f
1:00am 9 10 mph 1015.5mb 52f
12:00am 15 16 mph 1015.6mb 52f
Mon 10/20 11:00pm 20 21 mph 1015.3mb 53f
10:00pm 18 20 mph 1015.1mb 53f
9:00pm 21 23 mph 1015mb 54f
8:00pm 13 14 mph 1014.5mb 54f
7:00pm 14 16 mph 1014.4mb 54f
6:00pm 17 18 mph 1013.9mb 55f
5:00pm 14 16 mph 1013.6mb 55f
4:00pm 18 20 mph 1013.4mb 53f
3:00pm 8 10 mph 1013.9mb 51f
2:00pm 14 15 mph 1014.1mb 49f
1:00pm 18 21 mph 1014.8mb 47f
12:00pm 15 17 mph 1015.6mb 45f
11:00am 16 20 mph 1016mb 43f
10:00am 20 22 mph 1016.1mb 42f
9:00am 18 21 mph 1016.2mb 40f
8:00am 23 26 mph 1015.4mb 40f
7:00am 23 26 mph 1014.8mb 40f
6:00am 22 23 mph 1014.2mb 40f
5:00am 23 25 mph 1013.7mb 40f
4:00am 29 32 mph 1013.3mb 40f
3:00am 26 31 mph 1013.1mb 41f
2:00am 24 28 mph 1013.1mb 43f
1:00am 22 24 mph 1012.8mb 43f
12:00am 24 26 mph 1012.2mb 43f
Sun 10/19 11:00pm 22 25 mph 1012.1mb 45f
10:00pm 29 31 mph 1011.6mb 45f
9:00pm 31 36 mph 1011.3mb 46f
8:00pm 26 29 mph 1010.7mb 47f
7:00pm 30 32 mph 1010.2mb 47f
6:00pm 30 36 mph 1009.3mb 49f
5:00pm 30 33 mph 1008.6mb 49f
4:00pm 26 32 mph 1007.7mb 50f
3:00pm 20 22 mph 1007.3mb 51f
2:00pm 17 20 mph 1006.8mb 51f
1:00pm 21 26 mph 1005.9mb 51f
12:00pm 13 16 mph 1007.4mb 50f
11:00am 20 23 mph 1006.7mb 49f
10:00am 24 28 mph 1007.1mb 47f
9:00am 26 30 mph 1006.5mb 48f
8:00am 26 29 mph 1006mb 48f
7:00am 24 28 mph 1004.7mb 49f
6:00am 25 28 mph 1003.5mb 50f
5:00am 25 29 mph 1002.7mb 52f
4:00am 21 23 mph 1002mb 53f
3:00am 22 25 mph 1001.5mb 55f
2:00am 16 17 mph 1001mb 56f
1:00am 14 15 mph 1000.6mb 56f
12:00am 16 17 mph 1000.2mb 57f
Sat 10/18 11:00pm 13 14 mph 1000.2mb 58f
10:00pm 13
mph
1000.1mb 59f
9:00pm 16 17 mph 999.8mb 60f
8:00pm 11 13 mph 999.3mb 61f
7:00pm 8 9 mph 999mb 61f
6:00pm 11 13 mph 998.3mb 62f
5:00pm 16
mph
997.5mb 65f
4:00pm 6 7 mph 997.7mb 63f
3:00pm 2 3 mph 998mb 63f
2:00pm 16 17 mph 998.2mb 61f
1:00pm 15 16 mph 999.1mb 60f
12:00pm 10 13 mph 1000mb 61f
11:00am 8
mph
1000.7mb 60f
10:00am 11
mph
1001.1mb 59f
9:00am 11 13 mph 1001.8mb 58f
8:00am 13 15 mph 1001.8mb 58f
7:00am 18 21 mph 1001.6mb 59f
6:00am 21 23 mph 1001.5mb 58f
5:00am 21 22 mph 1002mb 59f
4:00am 18 20 mph 1002.2mb 59f
3:00am 16 17 mph 1002.4mb 59f
2:00am 15 16 mph 1002.9mb 59f